| time (UTC) | temp C | wind direction | speed KPH | gust KPH | rain 1hr cm | rain 24hr cm | rain mn cm | humidity % | barometer mb |
| 20260502164037 | 16 | 11 | 0.0 | 4.8 | 0.00 | 0.00 | 0.00 | 61 | 1013.7 |
| 20260502163537 | 16 | 19 | 0.0 | 4.8 | 0.00 | 0.00 | 0.00 | 65 | 1013.7 |
| 20260502163051 | 16 | 0 | 0.0 | 1.6 | 0.00 | 0.00 | 0.00 | 64 | 1013.8 |
| 20260502162539 | 16 | 0 | 0.0 | 3.2 | 0.00 | 0.00 | 0.00 | 64 | 1013.8 |
| 20260502162036 | 16 | 0 | 0.0 | 4.8 | 0.00 | 0.00 | 0.00 | 62 | 1013.9 |
| 20260502161559 | 16 | 0 | 0.0 | 4.8 | 0.00 | 0.00 | 0.00 | 63 | 1013.9 |
| 20260502161037 | 16 | 0 | 1.6 | 4.8 | 0.00 | 0.00 | 0.00 | 66 | 1014.0 |
| 20260502160537 | 16 | 0 | 0.0 | 4.8 | 0.00 | 0.00 | 0.00 | 65 | 1014.1 |
| 20260502152040 | 16 | 0 | 1.6 | 8.0 | 0.00 | 0.00 | 0.00 | 65 | 1014.8 |
| 20260502151600 | 16 | 139 | 0.0 | 6.4 | 0.00 | 0.00 | 0.00 | 63 | 1014.7 |
| 20260502151037 | 16 | 0 | 1.6 | 6.4 | 0.00 | 0.00 | 0.00 | 63 | 1014.9 |
| 20260502150621 | 16 | 0 | 0.0 | 8.0 | 0.00 | 0.00 | 0.00 | 64 | 1015.1 |
| 20260502130539 | 18 | 0 | 1.6 | 12.9 | 0.00 | 0.00 | 0.00 | 58 | 1016.5 |
| 20260502123535 | 18 | 215 | 1.6 | 14.5 | 0.00 | 0.00 | 0.00 | 56 | 1016.6 |
| 20260502123047 | 18 | 302 | 4.8 | 14.5 | 0.00 | 0.00 | 0.00 | 59 | 1016.7 |
| 20260502122536 | 18 | 202 | 1.6 | 14.5 | 0.00 | 0.00 | 0.00 | 59 | 1016.7 |
| 20260502122036 | 18 | 159 | 3.2 | 16.1 | 0.00 | 0.00 | 0.00 | 59 | 1016.7 |
| 20260502121601 | 17 | 0 | 4.8 | 17.7 | 0.00 | 0.00 | 0.00 | 59 | 1016.9 |
| 20260502121042 | 17 | 186 | 11.3 | 17.7 | 0.00 | 0.00 | 0.00 | 61 | 1016.9 |
| 20260502120537 | 18 | 162 | 4.8 | 14.5 | 0.00 | 0.00 | 0.00 | 59 | 1017.1 |
| 20260502115541 | 17 | 160 | 0.0 | 12.9 | 0.00 | 0.00 | 0.00 | 59 | 1017.2 |
| 20260502115038 | 17 | 123 | 4.8 | 14.5 | 0.00 | 0.00 | 0.00 | 60 | 1017.2 |
| 20260502114553 | 18 | 157 | 6.4 | 14.5 | 0.00 | 0.00 | 0.00 | 59 | 1017.2 |
| 20260502114037 | 18 | 165 | 1.6 | 17.7 | 0.00 | 0.00 | 0.00 | 55 | 1017.2 |
| 20260502113538 | 19 | 305 | 3.2 | 17.7 | 0.00 | 0.00 | 0.00 | 55 | 1017.3 |
| 20260502113055 | 18 | 0 | 1.6 | 11.3 | 0.00 | 0.00 | 0.00 | 58 | 1017.3 |
| 20260502112537 | 18 | 179 | 3.2 | 12.9 | 0.00 | 0.00 | 0.00 | 59 | 1017.4 |
| 20260502112037 | 19 | 217 | 3.2 | 14.5 | 0.00 | 0.00 | 0.00 | 59 | 1017.5 |
| 20260502111558 | 19 | 190 | 1.6 | 14.5 | 0.00 | 0.00 | 0.00 | 59 | 1017.6 |
| 20260502111039 | 19 | 0 | 4.8 | 12.9 | 0.00 | 0.00 | 0.00 | 56 | 1017.7 |
| 20260502110538 | 19 | 269 | 1.6 | 17.7 | 0.00 | 0.00 | 0.00 | 57 | 1017.8 |
| 20260502110051 | 18 | 179 | 4.8 | 17.7 | 0.00 | 0.00 | 0.00 | 57 | 1017.9 |
| 20260502105540 | 18 | 0 | 4.8 | 20.9 | 0.00 | 0.00 | 0.00 | 59 | 1017.9 |
| 20260502105036 | 18 | 223 | 4.8 | 20.9 | 0.00 | 0.00 | 0.00 | 60 | 1018.0 |
| 20260502104547 | 18 | 336 | 4.8 | 16.1 | 0.00 | 0.00 | 0.00 | 62 | 1018.0 |
| 20260502104039 | 17 | 288 | 1.6 | 14.5 | 0.00 | 0.00 | 0.00 | 61 | 1018.1 |
| 20260502103538 | 18 | 0 | 4.8 | 14.5 | 0.00 | 0.00 | 0.00 | 62 | 1018.0 |
| 20260502103053 | 18 | 0 | 3.2 | 16.1 | 0.00 | 0.00 | 0.00 | 62 | 1017.9 |
| 20260502102538 | 17 | 121 | 4.8 | 16.1 | 0.00 | 0.00 | 0.00 | 61 | 1018.0 |
| 20260502102038 | 16 | 300 | 1.6 | 16.1 | 0.00 | 0.00 | 0.00 | 67 | 1017.8 |
| 20260502101616 | 16 | 288 | 3.2 | 16.1 | 0.00 | 0.00 | 0.00 | 63 | 1018.0 |
| 20260502101037 | 17 | 113 | 0.0 | 16.1 | 0.00 | 0.00 | 0.00 | 64 | 1018.0 |
| 20260502100537 | 18 | 304 | 3.2 | 14.5 | 0.00 | 0.00 | 0.00 | 59 | 1018.1 |
| 20260502091037 | 17 | 171 | 6.4 | 16.1 | 0.00 | 0.00 | 0.00 | 66 | 1018.7 |
| 20260502090537 | 17 | 257 | 1.6 | 9.7 | 0.00 | 0.00 | 0.00 | 64 | 1018.9 |
| 20260502080103 | 15 | 178 | 0.0 | 8.0 | 0.00 | 0.00 | 0.00 | 72 | 1018.9 |
| 20260502071038 | 11 | 231 | 1.6 | 11.3 | 0.00 | 0.00 | 0.00 | 88 | 1018.9 |
| 20260502070538 | 10 | 0 | 1.6 | 11.3 | 0.00 | 0.00 | 0.00 | 88 | 1018.9 |
| 20260502070050 | 10 | 263 | 3.2 | 11.3 | 0.00 | 0.00 | 0.00 | 88 | 1019.0 |
| 20260502065538 | 10 | 298 | 1.6 | 9.7 | 0.00 | 0.00 | 0.00 | 89 | 1018.9 |
| 20260502065038 | 10 | 267 | 1.6 | 9.7 | 0.00 | 0.00 | 0.00 | 90 | 1019.0 |
| 20260502064559 | 10 | 264 | 1.6 | 9.7 | 0.00 | 0.00 | 0.00 | 91 | 1018.9 |
| 20260502064038 | 10 | 0 | 0.0 | 6.4 | 0.00 | 0.00 | 0.00 | 91 | 1019.1 |
| 20260502063537 | 9 | 0 | 0.0 | 6.4 | 0.00 | 0.00 | 0.00 | 91 | 1019.0 |
| 20260502063054 | 9 | 0 | 1.6 | 4.8 | 0.00 | 0.00 | 0.00 | 91 | 1018.9 |
| 20260502062537 | 9 | 0 | 1.6 | 6.4 | 0.00 | 0.00 | 0.00 | 91 | 1018.9 |
| 20260502062038 | 9 | 262 | 0.0 | 6.4 | 0.00 | 0.00 | 0.00 | 91 | 1018.9 |
| 20260502061551 | 8 | 0 | 1.6 | 6.4 | 0.00 | 0.00 | 0.00 | 91 | 1018.8 |
| 20260502061038 | 8 | 0 | 1.6 | 4.8 | 0.00 | 0.00 | 0.00 | 92 | 1018.9 |
| 20260502060537 | 8 | 0 | 0.0 | 4.8 | 0.00 | 0.00 | 0.00 | 92 | 1018.7 |
| 20260502060107 | 8 | 283 | 0.0 | 4.8 | 0.00 | 0.00 | 0.00 | 91 | 1018.6 |
| 20260502055537 | 8 | 0 | 0.0 | 4.8 | 0.00 | 0.00 | 0.00 | 92 | 1018.7 |
| 20260502055038 | 8 | 0 | 0.0 | 4.8 | 0.00 | 0.00 | 0.00 | 92 | 1018.7 |
| 20260502054553 | 8 | 0 | 0.0 | 6.4 | 0.00 | 0.00 | 0.00 | 92 | 1018.8 |
| 20260502054037 | 8 | 288 | 1.6 | 6.4 | 0.00 | 0.00 | 0.00 | 92 | 1018.7 |
| 20260502053537 | 8 | 0 | 1.6 | 6.4 | 0.00 | 0.00 | 0.00 | 92 | 1018.6 |
| 20260502053059 | 8 | 273 | 0.0 | 8.0 | 0.00 | 0.00 | 0.00 | 92 | 1018.7 |
| 20260502052537 | 8 | 267 | 0.0 | 9.7 | 0.00 | 0.00 | 0.00 | 92 | 1018.6 |
| 20260502052038 | 7 | 265 | 1.6 | 9.7 | 0.00 | 0.00 | 0.00 | 92 | 1018.7 |
| 20260502051558 | 7 | 0 | 0.0 | 6.4 | 0.00 | 0.00 | 0.00 | 91 | 1018.6 |
| 20260502051037 | 7 | 0 | 1.6 | 9.7 | 0.00 | 0.00 | 0.00 | 91 | 1018.6 |
| 20260502050540 | 7 | 285 | 1.6 | 9.7 | 0.00 | 0.00 | 0.00 | 91 | 1018.6 |
| 20260502050054 | 7 | 244 | 1.6 | 9.7 | 0.00 | 0.00 | 0.00 | 91 | 1018.6 |
| 20260502045539 | 7 | 269 | 3.2 | 9.7 | 0.00 | 0.00 | 0.00 | 91 | 1018.7 |
| 20260502045037 | 7 | 267 | 3.2 | 9.7 | 0.00 | 0.00 | 0.00 | 91 | 1018.8 |
| 20260502044549 | 7 | 286 | 1.6 | 6.4 | 0.00 | 0.00 | 0.00 | 91 | 1018.6 |
| 20260502044039 | 7 | 270 | 1.6 | 6.4 | 0.00 | 0.00 | 0.00 | 91 | 1018.6 |
| 20260502043537 | 7 | 289 | 1.6 | 6.4 | 0.00 | 0.00 | 0.00 | 90 | 1018.6 |
| 20260502043050 | 7 | 246 | 1.6 | 4.8 | 0.00 | 0.00 | 0.00 | 90 | 1018.7 |
| 20260502042542 | 7 | 0 | 0.0 | 4.8 | 0.00 | 0.00 | 0.00 | 90 | 1018.6 |
| 20260502042038 | 7 | 277 | 1.6 | 4.8 | 0.00 | 0.00 | 0.00 | 90 | 1018.7 |
| 20260502041543 | 7 | 268 | 1.6 | 6.4 | 0.00 | 0.00 | 0.00 | 90 | 1018.7 |
| 20260502041037 | 7 | 0 | 0.0 | 6.4 | 0.00 | 0.00 | 0.00 | 90 | 1018.8 |
| 20260502040537 | 7 | 337 | 1.6 | 6.4 | 0.00 | 0.00 | 0.00 | 90 | 1018.9 |
| 20260502040048 | 7 | 279 | 0.0 | 4.8 | 0.00 | 0.00 | 0.00 | 90 | 1018.9 |
| 20260502035537 | 7 | 275 | 1.6 | 4.8 | 0.00 | 0.00 | 0.00 | 89 | 1018.9 |
| 20260502035037 | 7 | 288 | 0.0 | 4.8 | 0.00 | 0.00 | 0.00 | 89 | 1018.9 |
| 20260502034551 | 7 | 289 | 1.6 | 4.8 | 0.00 | 0.00 | 0.00 | 89 | 1019.0 |
| 20260502034037 | 7 | 275 | 1.6 | 4.8 | 0.00 | 0.00 | 0.00 | 89 | 1019.0 |
| 20260502033536 | 7 | 288 | 1.6 | 4.8 | 0.00 | 0.00 | 0.00 | 89 | 1018.9 |
| 20260502033053 | 7 | 0 | 0.0 | 3.2 | 0.00 | 0.00 | 0.00 | 89 | 1019.0 |
| 20260502032536 | 7 | 0 | 0.0 | 3.2 | 0.00 | 0.00 | 0.00 | 89 | 1019.0 |
| 20260502032038 | 7 | 279 | 0.0 | 3.2 | 0.00 | 0.00 | 0.00 | 88 | 1019.0 |
| 20260502031548 | 7 | 279 | 0.0 | 3.2 | 0.00 | 0.00 | 0.00 | 88 | 1019.0 |
| 20260502031037 | 8 | 0 | 1.6 | 3.2 | 0.00 | 0.00 | 0.00 | 88 | 1019.1 |
| 20260502030537 | 8 | 0 | 0.0 | 3.2 | 0.00 | 0.00 | 0.00 | 88 | 1019.1 |
| 20260502030054 | 8 | 0 | 0.0 | 3.2 | 0.00 | 0.00 | 0.00 | 88 | 1019.1 |
| 20260502025537 | 8 | 0 | 0.0 | 3.2 | 0.00 | 0.00 | 0.00 | 87 | 1019.1 |
| 20260502025037 | 8 | 275 | 0.0 | 3.2 | 0.00 | 0.00 | 0.00 | 88 | 1019.0 |
| 20260502024547 | 8 | 273 | 0.0 | 3.2 | 0.00 | 0.00 | 0.00 | 87 | 1018.9 |
| 20260502024037 | 8 | 271 | 0.0 | 3.2 | 0.00 | 0.00 | 0.00 | 87 | 1019.0 |
| 20260502023537 | 8 | 0 | 0.0 | 3.2 | 0.00 | 0.00 | 0.00 | 87 | 1019.0 |
| 20260502023051 | 8 | 271 | 0.0 | 4.8 | 0.00 | 0.00 | 0.00 | 87 | 1019.1 |
| 20260502022539 | 8 | 0 | 0.0 | 4.8 | 0.00 | 0.00 | 0.00 | 86 | 1019.2 |
| 20260502022038 | 8 | 267 | 1.6 | 8.0 | 0.00 | 0.00 | 0.00 | 86 | 1019.3 |
| 20260502021552 | 8 | 273 | 1.6 | 9.7 | 0.00 | 0.00 | 0.00 | 86 | 1019.3 |
| 20260502021037 | 8 | 274 | 3.2 | 9.7 | 0.00 | 0.00 | 0.00 | 85 | 1019.3 |
| 20260502020539 | 8 | 268 | 1.6 | 9.7 | 0.00 | 0.00 | 0.00 | 85 | 1019.3 |
| 20260502020047 | 9 | 291 | 1.6 | 9.7 | 0.00 | 0.00 | 0.00 | 85 | 1019.4 |
| 20260502015538 | 9 | 248 | 0.0 | 14.5 | 0.00 | 0.00 | 0.00 | 85 | 1019.4 |
| 20260502015037 | 9 | 261 | 4.8 | 14.5 | 0.00 | 0.00 | 0.00 | 85 | 1019.4 |
| 20260502014555 | 9 | 306 | 6.4 | 14.5 | 0.00 | 0.00 | 0.00 | 85 | 1019.4 |
| 20260502014037 | 9 | 287 | 4.8 | 14.5 | 0.00 | 0.00 | 0.00 | 85 | 1019.5 |
| 20260502013537 | 9 | 281 | 4.8 | 14.5 | 0.00 | 0.00 | 0.00 | 85 | 1019.6 |
| 20260502013055 | 9 | 294 | 4.8 | 14.5 | 0.00 | 0.00 | 0.00 | 85 | 1019.6 |
| 20260502012537 | 9 | 296 | 6.4 | 14.5 | 0.00 | 0.00 | 0.00 | 85 | 1019.7 |
| 20260502012037 | 10 | 284 | 6.4 | 16.1 | 0.00 | 0.00 | 0.00 | 85 | 1019.7 |
| 20260502011605 | 10 | 250 | 6.4 | 16.1 | 0.00 | 0.00 | 0.00 | 85 | 1019.7 |
| 20260502011036 | 10 | 284 | 6.4 | 16.1 | 0.00 | 0.00 | 0.00 | 85 | 1019.8 |
| 20260502010536 | 10 | 312 | 6.4 | 14.5 | 0.00 | 0.00 | 0.00 | 85 | 1019.9 |
| 20260502010048 | 10 | 261 | 4.8 | 14.5 | 0.00 | 0.00 | 0.00 | 85 | 1019.9 |
| 20260502005536 | 10 | 263 | 4.8 | 14.5 | 0.00 | 0.00 | 0.00 | 85 | 1020.0 |
| 20260502005036 | 10 | 288 | 6.4 | 14.5 | 0.00 | 0.00 | 0.00 | 85 | 1020.0 |
| 20260502004558 | 10 | 176 | 6.4 | 16.1 | 0.00 | 0.00 | 0.00 | 85 | 1020.0 |
| 20260502004037 | 10 | 271 | 3.2 | 16.1 | 0.00 | 0.00 | 0.00 | 85 | 1020.0 |
| 20260502003537 | 10 | 296 | 6.4 | 14.5 | 0.00 | 0.00 | 0.00 | 85 | 1019.9 |
| 20260502003047 | 10 | 281 | 4.8 | 12.9 | 0.00 | 0.00 | 0.00 | 86 | 1020.1 |
| 20260502002537 | 10 | 309 | 6.4 | 14.5 | 0.00 | 0.00 | 0.00 | 85 | 1020.2 |
| 20260502002039 | 10 | 323 | 4.8 | 16.1 | 0.00 | 0.00 | 0.00 | 85 | 1020.2 |
| 20260502001550 | 10 | 267 | 6.4 | 16.1 | 0.00 | 0.00 | 0.00 | 85 | 1020.2 |
| 20260502001036 | 10 | 261 | 4.8 | 14.5 | 0.00 | 0.00 | 0.00 | 85 | 1020.1 |
| 20260502000536 | 10 | 288 | 3.2 | 14.5 | 0.00 | 0.00 | 0.00 | 85 | 1020.2 |
| 20260502000100 | 10 | 290 | 4.8 | 14.5 | 0.00 | 0.00 | 0.00 | 85 | 1020.2 |
| 20260501235536 | 10 | 269 | 6.4 | 14.5 | 0.00 | 0.00 | 0.00 | 85 | 1020.1 |
| 20260501235039 | 10 | 0 | 3.2 | 16.1 | 0.00 | 0.00 | 0.00 | 84 | 1020.3 |
| 20260501234551 | 10 | 259 | 4.8 | 16.1 | 0.00 | 0.00 | 0.00 | 84 | 1020.3 |
| 20260501234037 | 10 | 275 | 3.2 | 12.9 | 0.00 | 0.00 | 0.00 | 84 | 1020.3 |
| 20260501233536 | 10 | 225 | 3.2 | 11.3 | 0.00 | 0.00 | 0.00 | 84 | 1020.3 |
| 20260501233048 | 10 | 265 | 3.2 | 11.3 | 0.00 | 0.00 | 0.00 | 83 | 1020.3 |
| 20260501232536 | 10 | 245 | 1.6 | 9.7 | 0.00 | 0.00 | 0.00 | 83 | 1020.4 |
| 20260501232036 | 11 | 265 | 3.2 | 12.9 | 0.00 | 0.00 | 0.00 | 83 | 1020.3 |
| 20260501231552 | 11 | 247 | 3.2 | 12.9 | 0.00 | 0.00 | 0.00 | 83 | 1020.3 |
| 20260501231037 | 11 | 200 | 3.2 | 16.1 | 0.00 | 0.00 | 0.00 | 82 | 1020.3 |
| 20260501230537 | 11 | 246 | 4.8 | 16.1 | 0.00 | 0.00 | 0.00 | 82 | 1020.3 |
| 20260501230046 | 11 | 300 | 4.8 | 16.1 | 0.00 | 0.00 | 0.00 | 82 | 1020.3 |
| 20260501225540 | 11 | 273 | 3.2 | 16.1 | 0.00 | 0.00 | 0.00 | 82 | 1020.4 |
| 20260501225037 | 11 | 337 | 8.0 | 16.1 | 0.00 | 0.00 | 0.00 | 82 | 1020.4 |
| 20260501224552 | 11 | 250 | 4.8 | 16.1 | 0.00 | 0.00 | 0.00 | 82 | 1020.4 |
| 20260501224036 | 12 | 270 | 6.4 | 16.1 | 0.00 | 0.00 | 0.00 | 82 | 1020.4 |
| 20260501223538 | 12 | 279 | 6.4 | 16.1 | 0.00 | 0.00 | 0.00 | 83 | 1020.3 |
| 20260501223050 | 12 | 282 | 6.4 | 12.9 | 0.00 | 0.00 | 0.00 | 84 | 1020.3 |
| 20260501222537 | 12 | 288 | 4.8 | 16.1 | 0.00 | 0.00 | 0.00 | 84 | 1020.2 |
| 20260501222037 | 12 | 281 | 4.8 | 16.1 | 0.00 | 0.00 | 0.00 | 85 | 1020.3 |
| 20260501221607 | 12 | 229 | 4.8 | 11.3 | 0.00 | 0.00 | 0.00 | 85 | 1020.3 |
| 20260501221040 | 12 | 274 | 3.2 | 11.3 | 0.00 | 0.00 | 0.00 | 86 | 1020.3 |
| 20260501220536 | 12 | 243 | 1.6 | 12.9 | 0.00 | 0.00 | 0.00 | 86 | 1020.3 |
| 20260501220053 | 12 | 261 | 3.2 | 16.1 | 0.00 | 0.00 | 0.00 | 86 | 1020.2 |
| 20260501215538 | 12 | 268 | 4.8 | 16.1 | 0.00 | 0.00 | 0.00 | 86 | 1020.3 |
| 20260501215036 | 12 | 182 | 8.0 | 20.9 | 0.00 | 0.00 | 0.00 | 86 | 1020.2 |
| 20260501214547 | 12 | 269 | 4.8 | 20.9 | 0.00 | 0.00 | 0.00 | 86 | 1020.3 |
| 20260501214037 | 12 | 216 | 6.4 | 17.7 | 0.00 | 0.00 | 0.00 | 86 | 1020.2 |
| 20260501213536 | 12 | 280 | 4.8 | 19.3 | 0.00 | 0.00 | 0.00 | 86 | 1020.3 |
| 20260501213049 | 12 | 284 | 6.4 | 19.3 | 0.00 | 0.00 | 0.00 | 86 | 1020.2 |
| 20260501212537 | 12 | 296 | 6.4 | 16.1 | 0.00 | 0.00 | 0.00 | 86 | 1020.3 |
| 20260501212037 | 12 | 288 | 9.7 | 19.3 | 0.00 | 0.00 | 0.00 | 86 | 1020.2 |
| 20260501211549 | 12 | 298 | 4.8 | 19.3 | 0.00 | 0.00 | 0.00 | 86 | 1020.3 |
| 20260501211037 | 12 | 289 | 8.0 | 19.3 | 0.00 | 0.00 | 0.00 | 86 | 1020.2 |
| 20260501210536 | 12 | 286 | 3.2 | 16.1 | 0.00 | 0.00 | 0.00 | 86 | 1020.3 |
| 20260501210045 | 12 | 281 | 6.4 | 16.1 | 0.00 | 0.00 | 0.00 | 86 | 1020.3 |
| 20260501205537 | 12 | 283 | 4.8 | 14.5 | 0.00 | 0.00 | 0.00 | 86 | 1020.2 |
| 20260501205037 | 12 | 296 | 3.2 | 14.5 | 0.00 | 0.00 | 0.00 | 86 | 1020.3 |
| 20260501204542 | 12 | 272 | 6.4 | 14.5 | 0.00 | 0.00 | 0.00 | 86 | 1020.3 |
| 20260501204039 | 12 | 253 | 4.8 | 11.3 | 0.00 | 0.00 | 0.00 | 86 | 1020.3 |
| 20260501203541 | 12 | 295 | 3.2 | 11.3 | 0.00 | 0.00 | 0.00 | 86 | 1020.3 |
| 20260501203046 | 12 | 288 | 1.6 | 11.3 | 0.00 | 0.00 | 0.00 | 86 | 1020.4 |
| 20260501202536 | 12 | 302 | 3.2 | 11.3 | 0.00 | 0.00 | 0.00 | 86 | 1020.5 |
| 20260501202039 | 12 | 281 | 3.2 | 11.3 | 0.00 | 0.00 | 0.00 | 85 | 1020.4 |
| 20260501201546 | 12 | 296 | 3.2 | 11.3 | 0.00 | 0.00 | 0.00 | 85 | 1020.4 |
| 20260501201040 | 12 | 285 | 1.6 | 9.7 | 0.00 | 0.00 | 0.00 | 84 | 1020.3 |
| 20260501200536 | 12 | 292 | 4.8 | 9.7 | 0.00 | 0.00 | 0.00 | 84 | 1020.3 |
| 20260501200048 | 12 | 306 | 3.2 | 9.7 | 0.00 | 0.00 | 0.00 | 84 | 1020.3 |
| 20260501195536 | 13 | 317 | 4.8 | 9.7 | 0.00 | 0.00 | 0.00 | 83 | 1020.3 |
| 20260501195037 | 13 | 0 | 4.8 | 12.9 | 0.00 | 0.00 | 0.00 | 83 | 1020.3 |
| 20260501194550 | 13 | 309 | 3.2 | 14.5 | 0.00 | 0.00 | 0.00 | 83 | 1020.4 |
| 20260501194037 | 13 | 309 | 3.2 | 14.5 | 0.00 | 0.00 | 0.00 | 83 | 1020.3 |
| 20260501193537 | 13 | 0 | 8.0 | 14.5 | 0.00 | 0.00 | 0.00 | 83 | 1020.4 |
| 20260501193047 | 13 | 302 | 3.2 | 14.5 | 0.00 | 0.00 | 0.00 | 82 | 1020.3 |
| 20260501192537 | 13 | 296 | 4.8 | 14.5 | 0.00 | 0.00 | 0.00 | 82 | 1020.3 |
| 20260501192037 | 13 | 321 | 3.2 | 16.1 | 0.00 | 0.00 | 0.00 | 82 | 1020.3 |
| 20260501191550 | 13 | 294 | 8.0 | 20.9 | 0.00 | 0.00 | 0.00 | 81 | 1020.2 |
| 20260501191038 | 13 | 281 | 3.2 | 20.9 | 0.00 | 0.00 | 0.00 | 81 | 1020.3 |
| 20260501190535 | 13 | 275 | 9.7 | 17.7 | 0.00 | 0.00 | 0.00 | 81 | 1020.3 |
| 20260501190057 | 14 | 281 | 8.0 | 16.1 | 0.00 | 0.00 | 0.00 | 80 | 1020.3 |
| 20260501185537 | 14 | 278 | 4.8 | 17.7 | 0.00 | 0.00 | 0.00 | 80 | 1020.2 |
| 20260501185041 | 14 | 303 | 6.4 | 17.7 | 0.00 | 0.00 | 0.00 | 80 | 1020.1 |
| 20260501184546 | 14 | 280 | 6.4 | 17.7 | 0.00 | 0.00 | 0.00 | 79 | 1020.1 |
| 20260501184037 | 15 | 252 | 9.7 | 17.7 | 0.00 | 0.00 | 0.00 | 79 | 1020.1 |
| 20260501183538 | 15 | 240 | 4.8 | 16.1 | 0.00 | 0.00 | 0.00 | 78 | 1020.1 |
| 20260501183054 | 15 | 233 | 3.2 | 16.1 | 0.00 | 0.00 | 0.00 | 78 | 1020.1 |
| 20260501182536 | 15 | 248 | 3.2 | 16.1 | 0.00 | 0.00 | 0.00 | 77 | 1020.0 |
| 20260501182038 | 15 | 262 | 3.2 | 16.1 | 0.00 | 0.00 | 0.00 | 77 | 1020.0 |
| 20260501181553 | 15 | 227 | 1.6 | 12.9 | 0.00 | 0.00 | 0.00 | 76 | 1019.9 |
| 20260501181038 | 15 | 250 | 1.6 | 12.9 | 0.00 | 0.00 | 0.00 | 76 | 1019.8 |
| 20260501180537 | 15 | 263 | 1.6 | 17.7 | 0.00 | 0.00 | 0.00 | 76 | 1019.8 |
| 20260501180054 | 16 | 259 | 4.8 | 17.7 | 0.00 | 0.00 | 0.00 | 75 | 1019.7 |
| 20260501175538 | 16 | 328 | 6.4 | 16.1 | 0.00 | 0.00 | 0.00 | 74 | 1019.7 |
| 20260501175037 | 16 | 313 | 6.4 | 16.1 | 0.00 | 0.00 | 0.00 | 74 | 1019.7 |
| 20260501174551 | 16 | 293 | 3.2 | 16.1 | 0.00 | 0.00 | 0.00 | 74 | 1019.8 |
| 20260501174037 | 16 | 237 | 0.0 | 12.9 | 0.00 | 0.00 | 0.00 | 73 | 1019.8 |
| 20260501173537 | 16 | 0 | 1.6 | 16.1 | 0.00 | 0.00 | 0.00 | 72 | 1019.7 |
| 20260501173046 | 16 | 0 | 1.6 | 17.7 | 0.00 | 0.00 | 0.00 | 71 | 1019.7 |